Location: Harwich
(41.7160°N, 69.9939°W)
Time: 01:58:06
(UTC+02:00)

AO-27 - Pass Details

Date: 17 September 2024
Orbit: 783 x 796 km, 98.8° (Epoch: 04 October)

Event Time Altitude Azimuth Distance (km) Brightness Sun altitude
Exits shadow 02:46:20 43° 73° (ENE) 1,098 8.0 -22.4°
Maximum altitude 02:46:27 44° 69° (ENE) 1,097 8.0 -22.4°
Drops below altitude 10° 02:51:22 10° 359° (N) 2,366 10.4 -23.3°
Sets 02:53:47 0° 353° (N) 3,298 11.3 -23.7°
